Theta_e
298 297 297 297 298 299 300 301 302 304 304 305 306 308 309 310 311 314 316 316 315 316 317 316 317 317 317 314 312 312 314 310 300 297 299 299 299 298 297 297 297 297 297
297 297 296 297 298 300 302 303 304 305 305 307 307 309 309 310 312 315 317 317 316 315 315 315 317 317 317 312 312 314 313 311 306 296 297 296 297 297 297 297 296 296 296
297 296 296 297 300 302 303 304 306 307 308 310 311 311 311 312 314 315 316 317 317 316 316 316 317 317 317 316 313 314 312 312 307 302 296 296 296 296 296 296 296 296 296
297 296 296 299 301 302 304 305 306 308 311 312 313 313 314 315 317 318 318 318 318 318 317 317 317 317 318 317 316 314 311 309 306 303 299 297 297 296 296 296 296 296 296
296 296 297 300 301 303 305 307 308 310 311 314 315 316 317 318 318 318 318 318 318 317 317 317 317 318 318 317 317 312 310 307 305 302 300 297 296 295 296 298 297 297 298
296 297 299 300 302 304 306 306 308 312 312 313 314 315 315 316 317 317 317 317 316 316 315 316 316 317 316 316 313 311 311 308 305 304 301 300 299 299 300 298 296 295 295
296 298 300 301 301 303 304 305 307 308 310 312 312 314 313 313 313 315 315 312 312 312 312 313 312 312 313 311 310 309 308 306 305 305 304 303 302 301 299 297 296 295 295
297 299 301 301 302 303 306 306 306 307 308 308 308 309 309 306 309 311 311 309 308 308 308 309 308 309 308 309 308 306 304 303 304 305 304 301 300 300 297 297 296 295 294
297 299 301 301 302 303 304 305 305 306 306 305 305 306 307 305 308 309 310 308 306 304 305 306 307 306 305 305 306 304 303 302 301 300 299 298 299 297 296 296 296 295 295
299 300 301 302 302 303 303 304 303 305 303 305 304 305 306 305 307 309 309 307 304 301 302 303 304 304 304 303 301 299 294 291 290 290 289 290 293 295 293 292 292 292 292
300 300 300 301 302 303 302 302 301 302 301 301 301 301 303 304 304 306 306 306 303 297 294 292 291 293 293 293 292 292 291 289 288 288 287 287 287 289 289 289 289 289 290
299 299 299 300 301 301 302 301 300 300 300 298 298 298 297 297 298 298 298 299 296 296 291 289 289 291 292 291 292 290 289 289 289 288 288 287 286 285 285 285 285 285 286
298 298 298 299 300 300 301 300 300 301 300 298 299 297 295 295 296 295 296 296 294 294 292 292 292 292 291 290 289 289 289 288 288 287 286 285 285 285 285 285 285 284 284
297 297 297 298 297 298 300 300 300 299 299 298 297 294 293 294 295 295 295 294 294 294 291 290 289 288 288 287 287 287 287 286 286 286 285 285 285 286 286 286 286 285 285
295 296 296 297 297 297 298 298 298 298 298 297 296 296 294 292 292 293 294 294 293 291 288 288 288 288 288 287 286 286 286 287 286 285 285 285 284 284 283 283 283 283 282
294 294 295 296 295 296 296 295 297 299 298 298 296 296 294 294 293 293 293 292 289 288 289 288 287 287 287 286 286 285 284 284 283 284 283 283 283 283 283 282 282 282 281
294 294 294 296 294 293 292 291 290 291 295 296 295 294 295 294 293 292 289 288 288 289 291 288 286 286 285 284 284 283 282 282 283 283 282 282 282 281 281 281 280 280 279
293 294 294 295 296 295 293 290 288 289 288 288 290 291 290 289 288 288 288 288 289 289 288 286 285 284 283 283 282 282 282 282 282 281 281 281 280 280 280 279 278 277 276
293 292 292 292 294 294 294 293 290 287 287 286 286 287 287 287 287 288 288 289 287 286 286 284 284 283 282 282 281 281 281 281 280 280 279 279 279 279 277 276 275 275 275
294 294 293 292 292 292 291 290 288 287 285 286 286 287 287 287 287 287 287 288 287 285 284 283 282 282 281 281 280 280 279 278 278 278 277 277 276 276 275 274 274 274 273
293 293 294 292 291 292 291 289 287 286 285 286 286 287 286 285 285 285 285 286 286 285 283 283 282 281 280 279 279 278 277 276 276 276 275 275 274 274 273 273 273 273 273
292 292 291 291 291 290 289 287 286 285 285 286 286 285 285 285 285 284 284 284 283 283 282 282 280 279 277 277 277 276 275 275 274 274 274 273 273 273 273 273 272 272 272
291 290 290 290 289 288 287 287 286 286 286 286 284 284 285 284 283 282 282 281 281 280 279 279 277 276 275 274 274 274 274 273 273 273 273 272 272 272 272 272 272 272 271
291 290 289 288 288 287 287 286 286 286 284 283 283 284 283 282 280 279 279 278 277 277 276 276 275 274 273 273 272 272 272 272 271 271 272 272 271 271 271 271 271 270 270
289 289 289 288 287 287 287 286 284 283 282 282 282 281 280 279 278 278 277 276 275 274 273 273 272 272 272 272 271 271 271 270 270 271 271 271 271 270 270 270 270 269 269
288 288 289 288 288 287 285 283 282 282 281 281 279 279 278 277 276 277 275 274 273 271 271 270 270 270 270 270 270 269 270 270 270 270 270 270 270 270 269 269 268 268 268
Wind_Speed
5 4 6 3 2 2 4 5 5 4 4 6 6 5 4 7 11 8 7 23 27 25 20 16 15 19 14 13 16 17 9 7 8 4 8 8 11 10 9 9 9 9 9
6 4 4 2 2 2 4 6 5 4 2 4 6 7 8 12 12 10 12 19 20 24 24 14 13 16 14 13 22 12 10 5 8 10 8 10 10 11 10 9 9 10 9
8 5 3 2 1 2 4 3 3 3 4 6 7 6 10 12 11 11 13 15 18 19 22 20 17 15 16 15 17 11 9 8 10 15 10 9 5 11 10 10 11 10 10
9 6 5 3 1 1 2 4 7 10 10 12 13 14 11 11 10 9 13 15 15 16 18 21 20 17 16 15 14 13 12 10 14 16 12 9 5 8 12 13 14 13 14
11 9 7 4 3 5 6 7 9 16 15 15 15 15 14 14 12 11 12 12 17 15 15 16 17 19 17 12 13 13 13 16 15 14 12 7 7 8 13 11 14 13 15
12 11 8 5 7 9 9 11 14 15 14 16 16 14 14 12 9 8 13 14 15 15 16 17 16 17 15 11 10 13 12 16 15 10 7 6 7 8 9 10 11 6 4
14 13 9 8 11 13 15 17 18 19 17 15 15 14 14 12 8 12 16 19 21 22 21 20 20 18 17 20 18 17 14 11 8 6 7 4 2 3 4 8 9 6 3
16 14 11 11 14 18 21 22 22 23 24 24 23 22 21 19 17 18 22 25 25 24 24 24 25 23 20 20 20 19 16 12 9 7 5 4 1 1 2 3 4 5 8
21 18 16 15 18 19 23 25 26 27 26 25 25 25 25 24 25 27 29 31 31 28 26 23 22 21 17 14 15 15 12 10 6 4 2 1 1 2 2 1 2 3 4
25 20 19 18 19 22 23 26 27 29 30 27 26 23 22 22 21 24 28 30 32 28 24 22 18 17 15 12 10 10 11 11 7 6 6 5 4 4 2 1 1 3 4
26 22 20 21 22 23 25 27 29 30 30 29 28 24 23 22 20 20 22 27 29 28 25 22 19 15 15 13 11 9 11 10 10 9 10 11 9 6 4 2 2 2 2
27 24 22 21 23 27 28 26 26 27 28 28 28 25 21 20 19 19 20 22 24 27 25 22 20 16 16 14 13 14 13 10 9 9 9 11 10 10 9 8 7 5 1
30 27 26 24 25 26 28 26 26 23 24 24 26 24 20 19 20 19 19 19 21 23 21 20 18 17 16 16 16 14 12 10 10 12 14 15 15 14 12 13 10 13 13
34 31 28 26 24 23 23 23 23 22 21 23 24 22 20 18 18 18 19 19 19 21 21 20 19 18 18 19 17 16 15 14 14 15 15 14 12 11 12 13 13 6 14
33 33 30 29 27 23 19 18 18 17 19 23 23 24 23 20 18 18 18 18 18 20 23 22 22 21 21 19 18 16 15 14 14 13 13 13 14 14 16 15 17 18 20
30 33 32 31 28 26 26 22 16 16 16 16 17 17 17 18 19 16 16 17 19 22 23 22 20 17 17 16 16 15 15 16 15 14 15 15 16 16 16 16 16 18 20
32 32 32 32 29 28 25 26 26 18 17 18 18 15 15 19 17 17 19 22 21 19 20 18 18 17 16 16 17 18 19 16 14 15 16 16 15 16 16 17 17 17 19
35 36 36 37 37 32 28 22 21 25 24 19 19 20 18 19 21 23 24 22 18 15 17 18 19 18 18 18 19 19 17 15 14 15 15 14 14 14 16 17 17 17 17
36 37 33 32 36 36 33 29 25 21 23 24 21 20 20 21 23 23 20 19 20 19 19 19 19 18 18 18 16 15 14 14 13 13 13 13 13 14 17 16 17 18 19
36 38 37 35 34 33 32 30 28 28 23 18 17 19 26 25 23 22 20 20 21 20 19 19 18 17 16 15 14 14 14 14 14 15 16 15 15 16 18 18 18 20 21
35 38 39 35 33 33 33 33 33 32 26 20 17 21 23 25 25 24 23 23 23 22 21 19 19 17 15 14 13 14 15 16 15 17 17 16 16 19 19 19 19 19 19
37 37 37 36 36 34 34 34 33 32 26 25 25 24 24 25 26 26 25 23 21 20 19 19 20 18 15 13 12 14 17 18 18 18 18 18 18 18 18 18 19 19 19
35 34 32 33 34 34 34 33 33 30 27 28 32 30 27 27 27 26 25 25 24 23 21 20 20 20 18 17 17 16 19 20 18 16 18 19 19 18 17 18 18 18 18
35 34 31 30 32 31 30 28 27 27 31 34 34 32 31 30 29 29 28 28 28 26 23 22 21 20 21 22 21 21 21 20 18 15 15 17 19 18 17 18 17 16 16
34 33 32 30 29 28 28 28 29 31 33 34 34 34 33 33 32 32 31 31 29 27 25 24 25 25 23 23 21 21 21 20 18 15 14 16 18 17 17 17 16 16 15
30 31 31 30 27 26 28 29 29 31 32 33 34 36 36 36 35 35 35 33 31 30 28 27 26 25 24 23 21 21 20 19 18 15 13 14 16 16 15 15 14 14 14
Wind_Direction
148 181 229 218 223 269 284 321 322 297 280 272 262 248 216 189 177 169 178 169 174 171 154 149 157 175 169 178 176 169 170 161 126 137 171 180 186 190 188 194 190 200 214
158 193 226 223 243 282 335 330 325 298 244 220 211 206 183 175 171 153 137 166 166 171 188 193 187 171 155 157 159 163 173 157 128 131 159 175 191 192 197 204 208 211 220
160 190 202 192 184 340 352 30 8 31 94 128 148 173 150 145 164 179 175 165 169 173 185 194 184 166 172 164 182 184 165 152 156 158 146 165 175 194 201 215 223 224 240
163 174 196 166 138 26 58 77 103 106 117 124 129 133 138 154 157 143 152 169 172 180 196 206 209 205 188 181 181 175 167 150 130 125 119 142 163 202 211 224 230 236 243
166 171 177 179 127 111 105 107 102 118 115 128 134 134 138 146 152 148 153 160 175 176 183 185 192 195 196 194 181 167 156 135 127 122 127 142 179 185 208 223 231 240 251
176 166 169 167 136 122 121 120 119 120 117 125 124 124 123 127 148 164 165 155 151 155 158 159 163 181 182 176 150 136 135 138 136 130 142 160 186 208 206 220 215 220 259
175 165 172 161 142 130 124 125 120 117 123 118 110 107 100 107 142 148 143 136 132 128 129 133 131 134 141 134 127 127 129 134 129 135 145 140 189 226 237 236 233 236 275
172 172 170 158 143 134 127 121 118 116 111 110 111 109 108 111 123 124 126 122 117 115 118 119 119 120 123 128 130 126 121 114 101 106 120 127 103 11 243 329 309 271 277
171 175 166 158 147 138 131 127 124 121 116 113 112 113 114 119 125 125 122 117 113 110 111 114 116 118 117 120 127 122 115 107 115 102 93 97 186 171 222 307 319 304 307
174 175 166 158 153 143 134 128 125 122 117 116 112 111 114 119 130 132 128 123 116 114 111 112 114 117 121 122 125 121 115 105 107 114 98 99 106 152 142 43 341 334 334
172 171 167 161 152 142 135 132 128 123 121 117 113 112 115 118 123 128 131 128 125 121 115 111 111 120 121 116 119 112 103 102 98 89 85 80 74 69 50 24 345 356 311
171 167 166 162 153 147 141 138 133 131 126 123 118 115 115 119 122 125 127 125 127 123 117 113 107 103 99 102 98 92 92 94 96 95 90 81 74 66 60 53 46 38 6
169 166 163 161 157 153 147 145 141 139 133 130 126 123 123 127 130 133 130 127 125 114 110 106 104 102 102 96 92 92 95 99 100 87 76 69 66 61 61 61 58 81 67
168 166 163 161 157 157 153 153 148 145 143 144 139 134 132 131 130 133 131 131 125 118 116 113 113 111 104 102 101 96 94 91 88 88 85 81 78 73 65 59 64 89 57
166 166 166 164 161 155 154 159 162 162 167 161 155 149 145 144 143 142 141 138 134 128 125 121 118 112 107 100 95 92 92 94 92 95 93 88 83 79 74 70 69 66 62
169 168 171 167 165 162 156 145 156 157 155 164 159 159 151 150 149 150 148 144 137 134 129 121 113 111 110 110 106 102 97 95 96 99 96 91 87 80 80 75 74 71 63
176 175 177 174 172 167 162 153 139 140 155 162 161 163 168 159 156 153 148 141 140 145 132 128 125 122 121 120 115 108 102 102 103 98 96 94 93 88 81 75 71 67 60
176 179 180 178 177 175 171 165 155 149 145 142 153 157 158 154 151 151 149 149 140 142 136 132 128 127 124 121 119 120 118 115 107 105 101 97 91 89 78 67 62 58 57
180 177 181 180 177 178 177 171 166 158 150 143 143 146 149 149 150 151 154 152 147 143 139 134 136 137 133 130 129 128 124 118 115 109 102 100 96 92 88 81 76 71 68
186 184 185 184 182 180 177 170 164 161 151 152 154 155 155 153 152 158 162 156 147 142 141 136 134 134 132 133 132 130 125 121 115 109 103 99 96 92 92 89 83 80 73
187 189 188 188 184 184 182 176 171 168 156 156 161 164 163 158 158 159 152 152 152 151 148 144 140 140 140 138 135 132 126 118 113 110 105 104 105 102 98 93 88 81 77
187 186 186 184 186 182 180 182 174 166 155 153 155 160 175 170 160 156 154 152 149 147 145 143 140 137 134 130 131 131 123 117 115 115 116 115 108 104 101 94 88 82 75
184 182 182 184 185 182 178 177 171 164 156 153 155 161 169 164 159 157 152 148 148 145 143 144 143 136 134 131 131 129 124 117 115 119 120 115 109 104 98 92 86 82 76
184 181 179 178 179 174 169 165 164 160 157 159 162 163 166 165 161 156 153 150 147 144 146 145 143 141 138 134 130 125 121 117 117 118 115 111 105 101 96 91 85 83 81
181 178 178 174 171 166 161 161 160 162 161 162 161 161 163 163 160 157 153 150 147 147 145 145 140 137 135 133 130 126 121 117 115 113 114 110 104 99 94 91 89 87 84
177 175 173 172 167 166 162 160 160 161 160 161 160 159 162 161 160 158 154 152 148 145 143 141 139 138 136 133 128 123 119 115 113 112 111 107 102 97 93 89 84 78 74